Weather History for KSNL - September, 2013

Change the Weather History Date:

Tuesday, September 17, 2013

  Actual Average (KTIK) Record (KTIK)
Temperature  
Mean Temperature 84 °F -  
Max Temperature 96 °F 80 °F 95 °F (2004)
Min Temperature 71 °F 61 °F 53 °F (2008)
Cooling Degree Days 18    
Growing Degree Days 34 (Base 50)    
Moisture  
Dew Point 71 °F    
Average Humidity 80    
Maximum Humidity 100    
Minimum Humidity 44    
Precipitation  
Precipitation 0.32 in - - ()
Sea Level Pressure  
Sea Level Pressure 30.07 in    
Wind  
Wind Speed 5 mph (SE)    
Max Wind Speed 15 mph    
Max Gust Speed 20 mph    
Visibility 9 miles    
Events Rain , Thunderstorm    
Averages and records for this station are not official NWS values.
T = Trace of Precipitation, MM = Missing Value Source: NWS Daily Summary

Daily Weather History Graph

Daily Weather History Graph

Search for Another Location

Airport or City:

Trip Planner

Search our weather history database for the weather conditions in past years. The results will help you decide how hot, cold, wet, or windy it might be!

Date:

Astronomy

Sep. 17, 2013 Rise Set
Actual Time 7:12 AM CDT 7:31 PM CDT
Civil Twilight 6:46 AM CDT 7:56 PM CDT
Nautical Twilight 6:16 AM CDT 8:26 PM CDT
Astronomical Twilight 5:46 AM CDT 8:56 PM CDT
Moon 6:17 PM CDT (9/17) 5:11 AM CDT (9/17)
Length of Visible Light 13h 10m
Length of Day
12h 19m
Waxing Gibbous, 96% of the Moon is Illuminated
Sep 17
Waxing Gibbous
Sep 19
Full
Sep 26
Last Quarter
Oct 4
New
Oct 11
First Quarter

Hourly Weather History & Observations

Time (CDT) Temp. Heat Index Dew Point Humidity Pressure Visibility Wind Dir Wind Speed Gust Speed Precip Events Conditions
12:15 AM 77.0 °F - 69.8 °F 78% 30.12 in 10.0 mi East 5.8 mph - N/A   Clear
12:35 AM 77.0 °F - 69.8 °F 78% 30.12 in 10.0 mi ENE 4.6 mph - N/A   Mostly Cloudy
12:55 AM 77.0 °F - 69.8 °F 78% 30.12 in 10.0 mi East 4.6 mph - N/A   Scattered Clouds
1:15 AM 77.0 °F - 69.8 °F 78% 30.12 in 10.0 mi East 4.6 mph - N/A   Mostly Cloudy
1:35 AM 77.0 °F - 69.8 °F 78% 30.11 in 10.0 mi East 5.8 mph - N/A   Scattered Clouds
1:55 AM 77.0 °F - 71.6 °F 83% 30.11 in 10.0 mi East 4.6 mph - N/A   Clear
2:15 AM 77.0 °F - 71.6 °F 83% 30.11 in 10.0 mi East 4.6 mph - N/A   Scattered Clouds
2:35 AM 77.0 °F - 71.6 °F 83% 30.10 in 10.0 mi East 4.6 mph - N/A   Mostly Cloudy
2:55 AM 77.0 °F - 71.6 °F 83% 30.10 in 10.0 mi ESE 5.8 mph - N/A   Mostly Cloudy
3:15 AM 77.0 °F - 71.6 °F 83% 30.10 in 10.0 mi SE 5.8 mph - N/A   Mostly Cloudy
3:35 AM 77.0 °F - 71.6 °F 83% 30.10 in 7.0 mi East 3.5 mph - 0.01 in Rain Rain
3:55 AM 77.0 °F - 73.4 °F 89% 30.10 in 10.0 mi Calm Calm - 0.01 in   Overcast
4:15 AM 73.4 °F - 71.6 °F 94% 30.10 in 10.0 mi North 3.5 mph - N/A   Overcast
4:35 AM 73.4 °F - 71.6 °F 94% 30.10 in 10.0 mi NNE 3.5 mph - N/A   Overcast
4:55 AM 73.4 °F - 71.6 °F 94% 30.12 in 10.0 mi Calm Calm - N/A   Mostly Cloudy
5:15 AM 71.6 °F - 69.8 °F 94% 30.12 in 3.0 mi SSE 4.6 mph - 0.10 in Rain Heavy Rain
5:35 AM 71.6 °F - 69.8 °F 94% 30.12 in 10.0 mi South 6.9 mph - 0.18 in Rain Light Rain
5:55 AM 71.6 °F - 69.8 °F 94% 30.11 in 7.0 mi SSE 5.8 mph - 0.18 in Rain Light Rain
6:15 AM 71.6 °F - 69.8 °F 94% 30.11 in 10.0 mi SSE 8.1 mph - 0.01 in Rain Light Rain
6:35 AM 71.6 °F - 68.0 °F 88% 30.10 in 10.0 mi SSE 10.4 mph - 0.01 in Rain Light Rain
6:55 AM 71.6 °F - 69.8 °F 94% 30.10 in 7.0 mi SSE 8.1 mph - 0.02 in Rain Rain
7:15 AM 71.6 °F - 69.8 °F 94% 30.11 in 10.0 mi South 5.8 mph - N/A Rain Light Rain
7:35 AM 71.6 °F - 69.8 °F 94% 30.12 in 10.0 mi South 3.5 mph - N/A   Overcast
7:55 AM 71.6 °F - 69.8 °F 94% 30.12 in 7.0 mi SSE 3.5 mph - 0.01 in Rain , Thunderstorm Light Thunderstorms and Rain
8:15 AM 71.6 °F - 69.8 °F 94% 30.14 in 7.0 mi SW 3.5 mph - N/A Rain Light Rain
8:35 AM 71.6 °F - 69.8 °F 94% 30.14 in 3.0 mi Calm Calm - 0.03 in Rain , Thunderstorm Thunderstorms and Rain
8:55 AM 71.6 °F - 69.8 °F 94% 30.14 in 4.0 mi ESE 3.5 mph - 0.05 in Rain , Thunderstorm Light Thunderstorms and Rain
9:15 AM 71.6 °F - 69.8 °F 94% 30.14 in 10.0 mi East 4.6 mph - 0.01 in   Overcast
9:35 AM 71.6 °F - 69.8 °F 94% 30.13 in 10.0 mi East 4.6 mph - 0.01 in   Overcast
9:55 AM 71.6 °F - 69.8 °F 94% 30.13 in 10.0 mi East 3.5 mph - 0.01 in   Mostly Cloudy
10:15 AM 73.4 °F - 69.8 °F 88% 30.13 in 10.0 mi East 4.6 mph - N/A   Overcast
10:35 AM 73.4 °F - 71.6 °F 94% 30.12 in 10.0 mi ESE 6.9 mph - N/A   Mostly Cloudy
10:55 AM 77.0 °F - 71.6 °F 83% 30.12 in 10.0 mi SE 6.9 mph - 0.01 in   Mostly Cloudy
11:15 AM 78.8 °F - 69.8 °F 74% 30.12 in 10.0 mi SE 10.4 mph - N/A   Mostly Cloudy
11:35 AM 80.6 °F 83.9 °F 69.8 °F 70% 30.11 in 10.0 mi SE 8.1 mph - N/A   Scattered Clouds
11:55 AM 82.4 °F 86.3 °F 69.8 °F 66% 30.11 in 10.0 mi SE 9.2 mph - N/A   Scattered Clouds
12:15 PM 82.4 °F 86.3 °F 69.8 °F 66% 30.11 in 10.0 mi SSE 8.1 mph - N/A   Scattered Clouds
12:35 PM 82.4 °F 87.2 °F 71.6 °F 70% 30.11 in 10.0 mi SSE 6.9 mph - N/A   Mostly Cloudy
12:55 PM 82.4 °F 87.2 °F 71.6 °F 70% 30.10 in 10.0 mi SE 6.9 mph - N/A   Scattered Clouds
1:15 PM 84.2 °F 88.4 °F 69.8 °F 62% 30.09 in 10.0 mi SE 5.8 mph - N/A   Clear
1:35 PM 84.2 °F 89.6 °F 71.6 °F 66% 30.09 in 10.0 mi SE 5.8 mph - N/A   Clear
1:55 PM 86.0 °F 90.4 °F 69.8 °F 58% 30.08 in 10.0 mi SE 6.9 mph - N/A   Scattered Clouds
2:15 PM 87.8 °F 93.8 °F 71.6 °F 58% 30.07 in 10.0 mi ESE 5.8 mph - N/A   Mostly Cloudy
2:35 PM 87.8 °F 93.8 °F 71.6 °F 58% 30.06 in 10.0 mi SE 4.6 mph - N/A   Overcast
2:55 PM 87.8 °F 93.8 °F 71.6 °F 58% 30.05 in 10.0 mi ESE 3.5 mph - N/A   Mostly Cloudy
3:15 PM 91.4 °F 100.1 °F 73.4 °F 55% 30.04 in 10.0 mi ESE 5.8 mph - N/A   Scattered Clouds
3:35 PM 91.4 °F 98.4 °F 71.6 °F 52% 30.02 in 10.0 mi Calm Calm - N/A   Mostly Cloudy
3:55 PM 91.4 °F 98.4 °F 71.6 °F 52% 30.01 in 10.0 mi SE 3.5 mph - N/A   Mostly Cloudy
4:15 PM 95.0 °F 103.2 °F 71.6 °F 47% 30.01 in 10.0 mi Calm Calm - N/A   Scattered Clouds
4:35 PM 96.8 °F 107.3 °F 73.4 °F 47% 29.99 in 10.0 mi SSE 4.6 mph - N/A   Scattered Clouds
4:55 PM 95.0 °F 101.3 °F 69.8 °F 44% 29.99 in 10.0 mi SE 4.6 mph - N/A   Scattered Clouds
5:15 PM 91.4 °F 96.8 °F 69.8 °F 49% 29.98 in 10.0 mi SSE 5.8 mph - N/A   Clear
5:35 PM 91.4 °F 98.4 °F 71.6 °F 52% 29.98 in 10.0 mi ESE 4.6 mph - N/A   Clear
5:55 PM 91.4 °F 98.4 °F 71.6 °F 52% 29.98 in 10.0 mi ESE 6.9 mph - N/A   Clear
6:15 PM 91.4 °F 98.4 °F 71.6 °F 52% 29.98 in 10.0 mi ESE 4.6 mph - N/A   Clear
6:35 PM 87.8 °F 93.8 °F 71.6 °F 58% 29.98 in 10.0 mi ESE 8.1 mph - N/A   Clear
6:55 PM 84.2 °F 88.4 °F 69.8 °F 62% 30.01 in 10.0 mi WSW 15.0 mph 19.6 mph N/A   Mostly Cloudy
7:15 PM 78.8 °F - 71.6 °F 78% 30.02 in 10.0 mi SW 9.2 mph 16.1 mph N/A Rain , Thunderstorm Light Thunderstorms and Rain
7:35 PM 77.0 °F - 73.4 °F 89% 30.03 in 4.0 mi South 4.6 mph - 0.03 in Rain , Thunderstorm Heavy Thunderstorms and Rain
7:55 PM 73.4 °F - 73.4 °F 100% 30.02 in 10.0 mi SE 6.9 mph - 0.03 in Rain , Thunderstorm Light Thunderstorms and Rain
8:15 PM 77.0 °F - 75.2 °F 94% 30.01 in 10.0 mi SSE 5.8 mph - N/A   Clear
8:35 PM 77.0 °F - 75.2 °F 94% 30.01 in 10.0 mi South 4.6 mph - N/A   Clear
8:55 PM 77.0 °F - 73.4 °F 89% 30.01 in 10.0 mi ESE 3.5 mph - N/A   Clear
9:15 PM 77.0 °F - 73.4 °F 89% 30.01 in 10.0 mi SE 3.5 mph - N/A   Clear
9:35 PM 77.0 °F - 75.2 °F 94% 30.02 in 10.0 mi SE 3.5 mph - N/A   Clear
9:55 PM 77.0 °F - 75.2 °F 94% 30.02 in 10.0 mi Calm Calm - N/A   Clear
10:15 PM 77.0 °F - 75.2 °F 94% 30.03 in 10.0 mi ESE 6.9 mph - N/A   Clear
10:35 PM 73.4 °F - 73.4 °F 100% 30.03 in 10.0 mi ESE 6.9 mph - N/A   Clear
10:55 PM 73.4 °F - 73.4 °F 100% 30.03 in 10.0 mi ESE 5.8 mph - N/A   Clear
11:15 PM 73.4 °F - 73.4 °F 100% 30.02 in 10.0 mi ESE 4.6 mph - N/A   Clear
11:35 PM 73.4 °F - 73.4 °F 100% 30.02 in 10.0 mi SE 5.8 mph - N/A   Clear
11:55 PM 73.4 °F - 73.4 °F 100% 30.02 in 10.0 mi SE 4.6 mph - N/A   Clear